{"data":{"norad_id":59492,"intl_designator":"2024-071J","name":"STARLINK-31684","alt_names":[],"object_type":"PAYLOAD","status":"ACTIVE","operator":null,"country":"US","launch_date":"2024-04-13","launch_site_code":"AFETR","launch_vehicle":null,"mission":null,"orbit_class":"UNKNOWN","rcs_meters":null,"size_class":null,"mass_kg":null,"dimensions":null,"purposes":["comms"],"wikipedia_slug":null,"has_3d_model":false,"image_url":null,"decayed_at":null,"tle_current":{"epoch":"2026-09-21T15:02:50.846496Z","epoch_age_seconds":68257,"freshness":"FRESH","line1":"1 59492U 24071J   26264.62697739  .00000633  00000+0  32542-4 0  9993","line2":"2 59492  43.0028 320.8088 0001133 219.4929 140.5841 15.27578481138082","mean_motion":15.27578481,"eccentricity":0.0001133,"inclination_deg":43.0028,"raan_deg":320.8088,"arg_perigee_deg":219.4929,"mean_anomaly_deg":140.5841,"bstar":3.2542e-5,"rev_number":13808,"period_min":94.266842451023,"perigee_km":482.27627157586,"apogee_km":483.8310173759,"semimajor_km":6861.1906444759,"source":"CELESTRAK","updated_at":"2026-09-22T09:00:48.957147Z"}}}